"datetime","# probes","# resolvers","can_ipv6","can_ipv6_prbs","can_tcp","can_tcp_prbs","can_tcp6","can_tcp6_prbs","does_ecs","does_ecs_prbs","does_flagday","does_flagday_prbs","does_rov4","does_rov4_prbs","does_rov6","does_rov6_prbs","does_qnamemin","doesnt_qnamemin","does_qnamemin_prbs","doesnt_qnamemin_prbs","does_nxdomain","doesnt_nxdomain","does_nxdomain_prbs","doesnt_nxdomain_prbs","has_ta_19036","hasnt_ta_19036","has_ta_19036_prbs","hasnt_ta_19036_prbs","has_ta_20326","hasnt_ta_20326","has_ta_20326_prbs","hasnt_ta_20326_prbs","can_rsamd5","cannot_rsamd5","broken_rsamd5","can_rsamd5_prbs","cannot_rsamd5_prbs","broken_rsamd5_prbs","can_dsa","cannot_dsa","broken_dsa","can_dsa_prbs","cannot_dsa_prbs","broken_dsa_prbs","can_rsasha1","cannot_rsasha1","broken_rsasha1","can_rsasha1_prbs","cannot_rsasha1_prbs","broken_rsasha1_prbs","can_dsansec3","cannot_dsansec3","broken_dsansec3","can_dsansec3_prbs","cannot_dsansec3_prbs","broken_dsansec3_prbs","can_rsansec3","cannot_rsansec3","broken_rsansec3","can_rsansec3_prbs","cannot_rsansec3_prbs","broken_rsansec3_prbs","can_rsasha256","cannot_rsasha256","broken_rsasha256","can_rsasha256_prbs","cannot_rsasha256_prbs","broken_rsasha256_prbs","can_rsasha512","cannot_rsasha512","broken_rsasha512","can_rsasha512_prbs","cannot_rsasha512_prbs","broken_rsasha512_prbs","can_eccgost","cannot_eccgost","broken_eccgost","can_eccgost_prbs","cannot_eccgost_prbs","broken_eccgost_prbs","can_ecdsa256","cannot_ecdsa256","broken_ecdsa256","can_ecdsa256_prbs","cannot_ecdsa256_prbs","broken_ecdsa256_prbs","can_ecdsa384","cannot_ecdsa384","broken_ecdsa384","can_ecdsa384_prbs","cannot_ecdsa384_prbs","broken_ecdsa384_prbs","can_ed25519","cannot_ed25519","broken_ed25519","can_ed25519_prbs","cannot_ed25519_prbs","broken_ed25519_prbs","can_ed448","cannot_ed448","broken_ed448","can_ed448_prbs","cannot_ed448_prbs","broken_ed448_prbs","can_gost","cannot_gost","broken_gost","can_gost_prbs","cannot_gost_prbs","broken_gost_prbs","can_sha384","cannot_sha384","broken_sha384","can_sha384_prbs","cannot_sha384_prbs","broken_sha384_prbs","is_internal","is_forwarding","is_external","is_internal_prbs","is_forwarding_prbs","is_external_prbs"
2017-06-20T23:59:59Z,151,285,252,133,284,151,239,128,35,30,0,0,0,0,0,0,1,284,2,151,0,285,0,151,0,0,0,0,0,0,0,0,10,241,34,12,135,26,253,32,0,141,40,2,285,0,0,151,21,1,253,32,0,141,41,2,285,0,0,151,23,1,285,0,0,151,23,1,285,0,0,151,23,1,251,34,0,140,45,2,285,0,0,151,23,1,285,0,0,151,23,1,0,285,0,0,151,2,0,285,0,0,151,2,285,0,0,151,26,2,283,0,0,151,23,1,240,7,38,134,8,41
2017-06-21T23:59:59Z,151,287,254,133,287,151,242,129,39,33,0,0,0,0,0,0,1,286,2,151,0,287,0,151,0,0,0,0,0,0,0,0,11,239,37,12,135,28,251,36,0,140,42,2,286,1,0,151,22,1,250,37,0,140,43,2,285,2,0,151,23,1,285,2,0,151,23,1,285,2,0,151,23,1,248,39,0,139,47,2,285,2,0,151,24,1,285,2,0,151,24,1,0,287,0,0,151,2,0,287,0,0,151,2,287,0,0,151,24,2,284,2,0,150,24,1,238,8,41,134,8,42
2017-06-22T23:59:59Z,150,287,253,131,287,150,241,126,39,32,0,0,0,0,0,0,2,285,3,149,0,287,0,150,0,0,0,0,0,0,0,0,10,241,36,11,135,26,252,35,0,140,42,1,287,0,0,150,22,0,251,36,0,139,44,1,287,0,0,150,23,0,287,0,0,150,23,0,287,0,0,150,23,0,249,38,0,138,48,1,286,1,0,150,25,0,286,1,0,150,25,0,0,287,0,0,150,1,0,287,0,0,150,1,287,0,0,150,25,2,285,1,0,149,24,1,239,7,41,134,8,42
2017-06-23T23:59:59Z,149,283,249,130,283,149,237,125,36,30,0,0,0,0,0,0,2,281,3,148,0,283,1,149,0,0,0,0,0,0,0,0,10,240,33,11,134,25,250,33,0,139,41,2,281,2,0,149,23,1,249,34,0,138,42,2,282,1,0,149,22,1,282,1,0,149,22,1,282,1,0,149,22,1,247,36,0,137,46,2,283,0,0,149,22,1,283,0,0,149,22,1,0,283,0,0,149,2,0,283,0,0,149,2,283,0,0,149,23,3,280,2,0,148,23,2,238,7,38,133,9,40
2017-06-24T23:59:59Z,145,277,243,126,277,145,230,121,36,30,0,0,0,0,0,0,2,275,3,144,0,277,0,145,0,0,0,0,0,0,0,0,11,232,34,12,130,24,244,33,0,135,40,1,276,1,0,145,22,0,244,33,0,135,40,1,277,0,0,145,21,0,277,0,0,145,21,0,277,0,0,145,21,0,242,35,0,134,44,1,277,0,0,145,21,0,277,0,0,145,21,0,0,277,0,0,145,1,0,277,0,0,145,1,277,0,0,145,23,2,275,1,0,144,22,1,231,7,39,129,8,40
2017-06-25T23:59:59Z,146,278,244,127,278,146,232,122,34,31,0,0,0,0,0,0,2,276,3,145,0,278,0,146,0,0,0,0,0,0,0,0,10,236,32,11,132,23,248,30,0,136,39,1,278,0,0,146,22,0,248,30,0,135,41,1,278,0,0,146,23,0,278,0,0,146,23,0,278,0,0,146,23,0,245,33,0,134,45,1,278,0,0,146,23,0,278,0,0,146,23,0,0,278,0,0,146,1,0,278,0,0,146,1,278,0,0,146,25,2,277,0,0,145,22,1,235,6,37,130,9,39
2017-06-26T23:59:59Z,152,291,256,133,291,152,242,128,36,31,0,0,0,0,0,0,2,289,3,151,0,291,0,152,0,0,0,0,0,0,0,0,10,246,35,12,137,25,258,33,0,141,41,1,291,0,0,152,22,0,258,33,0,141,41,1,291,0,0,152,22,0,291,0,0,152,22,0,291,0,0,152,22,0,256,35,0,140,46,1,290,1,0,152,23,0,290,1,0,152,23,0,0,291,0,0,152,1,0,291,0,0,152,1,291,0,0,152,25,2,289,1,0,151,23,1,244,7,40,134,10,41
2017-06-27T23:59:59Z,149,283,248,130,283,149,235,125,32,27,0,0,0,0,0,0,2,281,3,148,0,283,0,149,0,0,0,0,0,0,0,0,10,241,32,12,134,23,253,30,0,138,38,1,282,0,1,149,20,1,254,29,0,139,38,1,283,0,0,149,20,0,283,0,0,149,20,0,283,0,0,149,20,0,252,31,0,138,43,1,283,0,0,149,21,0,283,0,0,149,21,0,0,283,0,0,149,1,0,283,0,0,149,1,283,0,0,149,24,2,282,0,0,148,21,1,240,7,36,132,9,38
2017-06-28T23:59:59Z,149,285,250,130,285,149,239,125,35,30,0,0,0,0,0,0,2,283,3,148,0,285,0,149,0,0,0,0,0,0,0,0,10,242,33,11,134,24,254,31,0,139,39,2,285,0,0,149,20,1,253,32,0,138,41,2,285,0,0,149,21,1,285,0,0,149,21,1,285,0,0,149,21,1,251,34,0,137,45,2,284,1,0,149,23,1,284,1,0,149,23,1,0,285,0,0,149,2,0,285,0,0,149,2,285,0,0,149,23,3,284,0,0,148,20,2,240,8,37,132,10,39
2017-06-29T23:59:57Z,148,285,250,129,285,148,239,125,36,28,0,0,0,0,0,0,2,283,3,147,0,285,0,148,0,0,0,0,0,0,0,0,10,241,34,12,133,24,252,33,0,137,39,1,284,1,0,148,20,0,252,33,0,137,38,1,284,1,0,148,19,0,284,1,0,148,19,0,284,1,0,148,19,0,250,35,0,136,43,1,284,1,0,148,21,0,284,1,0,148,21,0,0,285,0,0,148,1,0,285,0,0,148,1,285,0,0,148,22,2,284,0,0,147,19,1,238,9,38,130,10,38
2017-06-30T23:59:59Z,148,282,247,129,282,148,235,124,34,28,0,0,0,0,0,0,2,280,3,147,0,282,0,148,0,0,0,0,0,0,0,0,10,240,32,12,134,23,252,30,0,138,38,1,282,0,0,148,20,0,251,31,0,137,39,1,282,0,0,148,19,0,282,0,0,148,19,0,281,0,1,148,19,1,249,32,1,136,44,2,282,0,0,148,20,0,282,0,0,148,20,0,0,282,0,0,148,1,0,282,0,0,148,1,282,0,0,148,23,2,281,0,0,147,18,1,238,7,37,131,9,38
2017-07-01T23:59:59Z,147,278,243,128,278,147,232,124,35,28,0,0,0,0,0,0,2,276,3,146,0,278,0,147,0,0,0,0,0,0,0,0,10,235,33,12,131,24,246,32,0,135,38,1,277,1,0,147,19,0,246,32,0,135,39,1,277,1,0,147,20,0,277,1,0,147,20,0,277,1,0,147,20,0,244,33,1,134,44,2,278,0,0,147,19,0,278,0,0,147,19,0,0,278,0,0,147,1,0,278,0,0,147,1,278,0,0,147,22,2,277,0,0,146,19,1,232,9,37,128,10,38
2017-07-02T23:59:59Z,147,281,247,129,281,147,236,125,34,29,0,0,0,0,0,0,2,279,3,146,0,281,0,147,0,0,0,0,0,0,0,0,9,239,33,11,132,24,250,31,0,136,40,1,281,0,0,147,21,0,250,31,0,136,40,1,281,0,0,147,20,0,281,0,0,147,20,0,281,0,0,147,20,0,248,33,0,135,45,1,281,0,0,147,22,0,281,0,0,147,22,0,0,281,0,0,147,1,0,281,0,0,147,1,281,0,0,147,24,2,280,0,0,146,20,1,237,7,37,130,10,38
2017-07-03T23:59:59Z,149,287,252,131,287,149,242,127,34,27,0,0,0,0,0,0,3,284,4,148,0,287,0,149,0,0,0,0,0,0,0,0,9,244,34,11,134,24,255,32,0,138,38,1,287,0,0,149,19,1,256,31,0,139,37,1,287,0,0,149,19,1,287,0,0,149,19,1,287,0,0,149,19,1,254,33,0,138,42,1,287,0,0,149,20,1,287,0,0,149,20,1,0,287,0,0,149,1,0,287,0,0,149,1,287,0,0,149,23,2,286,0,0,148,19,2,242,7,38,132,9,38
2017-07-04T23:59:59Z,150,290,255,132,290,150,244,128,35,28,0,0,0,0,0,0,2,288,3,149,0,290,0,150,0,0,0,0,0,0,0,0,9,247,34,11,135,24,258,32,0,139,38,1,290,0,0,150,20,0,258,32,0,139,39,1,289,0,1,149,21,1,290,0,0,150,21,0,290,0,0,150,21,0,256,34,0,138,44,1,289,0,1,149,22,1,289,0,1,149,22,1,0,289,1,0,149,2,0,289,1,0,150,2,290,0,0,150,24,2,289,0,0,149,21,1,244,7,39,132,10,39
2017-07-05T23:59:59Z,150,291,256,132,291,150,243,127,35,28,0,0,0,0,0,0,2,289,3,149,0,291,0,150,0,0,0,0,0,0,0,0,9,248,34,11,135,24,259,32,0,140,39,1,291,0,0,150,19,0,259,32,0,140,39,1,291,0,0,150,20,0,291,0,0,150,20,0,291,0,0,150,20,0,257,34,0,139,44,1,291,0,0,150,20,0,291,0,0,150,20,0,0,291,0,0,150,1,0,291,0,0,150,1,291,0,0,150,23,2,290,0,0,149,20,1,245,7,39,133,9,39
2017-07-06T23:59:59Z,150,290,255,132,289,149,241,128,35,27,0,0,0,0,0,0,2,288,3,149,0,289,0,149,0,0,0,0,0,0,0,0,9,248,33,11,136,23,258,32,0,140,37,1,288,1,1,149,19,1,257,32,1,139,38,2,289,1,0,150,20,0,290,0,0,150,19,0,290,0,0,150,19,0,256,34,0,139,43,1,289,0,1,149,19,1,290,0,0,150,19,0,0,290,0,0,150,1,0,290,0,0,150,1,290,0,0,150,22,2,288,1,0,149,20,1,243,9,38,132,10,38
2017-07-07T23:59:59Z,150,290,255,132,290,150,244,128,36,28,0,0,0,0,0,0,2,288,3,149,0,289,0,149,0,0,0,0,0,0,0,0,9,246,35,11,135,24,257,33,0,140,38,1,290,0,0,150,18,0,257,33,0,140,38,1,290,0,0,150,19,0,290,0,0,150,19,0,290,0,0,150,19,0,254,35,1,138,43,2,290,0,0,150,20,0,290,0,0,150,20,0,0,290,0,0,150,1,0,290,0,0,150,1,290,0,0,150,23,2,289,0,0,149,19,1,242,8,40,132,10,39
2017-07-08T23:59:59Z,150,291,256,132,290,150,245,128,35,27,0,0,0,0,0,0,2,289,3,149,0,290,0,149,0,0,0,0,0,0,0,0,9,249,33,11,136,23,258,33,0,140,38,1,289,2,0,150,20,0,259,32,0,140,37,1,290,1,0,150,19,0,290,1,0,150,19,0,290,1,0,150,19,0,257,34,0,139,42,1,289,2,0,150,21,0,289,2,0,150,21,0,0,291,0,0,150,1,0,291,0,0,150,1,291,0,0,150,21,2,289,1,0,149,19,1,244,9,38,132,10,38
2017-07-09T23:59:59Z,153,303,267,135,301,153,256,131,38,29,0,0,0,0,0,0,2,301,3,152,0,302,0,152,0,0,0,0,0,0,0,0,9,259,35,11,139,23,269,34,0,143,40,0,302,1,0,153,21,0,269,34,0,143,40,0,302,0,1,152,20,1,303,0,0,153,20,0,303,0,0,153,20,0,267,36,0,142,45,0,303,0,0,153,20,0,303,0,0,153,20,0,0,303,0,0,153,0,0,303,0,0,153,0,303,0,0,153,23,1,301,1,0,152,21,1,254,9,40,135,10,39
2017-07-10T23:59:59Z,153,297,263,136,297,153,252,132,33,27,0,0,0,0,0,0,2,295,3,152,0,296,1,152,0,0,0,0,0,0,0,0,9,257,31,11,139,21,268,29,0,143,38,0,297,0,0,153,21,0,267,29,1,142,39,1,297,0,0,153,21,0,297,0,0,153,22,0,297,0,0,153,21,0,266,31,0,142,44,0,297,0,0,153,21,0,297,0,0,153,21,0,0,297,0,0,153,0,0,297,0,0,153,0,297,0,0,153,24,2,296,0,0,152,21,2,253,8,36,135,12,37
2017-07-11T23:59:59Z,153,299,265,136,299,153,254,132,34,28,0,0,0,0,0,0,2,297,3,152,0,299,0,153,0,0,0,0,0,0,0,0,9,257,33,10,139,22,268,31,0,143,39,0,299,0,0,153,21,0,269,30,0,143,38,0,299,0,0,153,19,0,299,0,0,153,19,0,299,0,0,153,19,0,266,33,0,142,42,0,299,0,0,153,20,0,299,0,0,153,20,0,0,299,0,0,153,0,0,299,0,0,153,0,299,0,0,153,23,1,298,0,0,152,21,1,254,7,38,136,10,37
2017-07-12T23:59:59Z,152,296,262,135,296,152,251,131,37,29,0,0,0,0,0,0,2,294,3,151,0,296,0,152,0,0,0,0,0,0,0,0,9,252,35,10,137,24,262,34,0,141,41,0,295,1,0,152,21,0,262,34,0,141,41,0,295,1,0,152,21,0,295,1,0,152,21,0,295,1,0,152,21,0,260,36,0,140,45,0,295,1,0,152,21,0,295,1,0,152,21,0,0,296,0,0,152,0,0,296,0,0,152,0,296,0,0,152,22,1,295,0,0,151,20,1,248,8,40,134,9,39
2017-07-13T23:59:59Z,150,297,263,133,297,150,252,129,34,27,0,0,0,0,0,0,2,295,3,149,0,297,0,150,0,0,0,0,0,0,0,0,8,257,32,9,137,22,266,31,0,140,39,0,296,1,0,150,21,0,266,31,0,140,39,0,296,1,0,150,21,0,296,1,0,150,21,0,296,1,0,150,21,0,264,33,0,139,43,0,297,0,0,150,21,0,297,0,0,150,21,0,0,297,0,0,150,0,0,297,0,0,150,0,297,0,0,150,22,1,296,0,0,149,20,1,252,8,37,133,10,37
2017-07-14T23:59:59Z,153,305,271,136,305,153,260,132,35,28,0,0,0,0,0,0,2,303,3,152,0,305,0,153,0,0,0,0,0,0,0,0,8,263,34,9,140,23,273,32,0,143,39,0,305,0,0,153,20,0,273,32,0,143,39,0,305,0,0,153,20,0,305,0,0,153,20,0,305,0,0,153,20,0,271,34,0,142,43,0,305,0,0,153,20,0,305,0,0,153,19,0,0,305,0,0,153,0,0,305,0,0,153,0,305,0,0,153,22,1,304,0,0,152,20,1,260,7,38,136,10,37
2017-07-15T23:59:59Z,153,303,269,135,303,153,257,131,35,28,0,0,0,0,0,0,2,301,3,152,0,303,0,153,0,0,0,0,0,0,0,0,8,261,34,9,139,23,270,33,0,143,39,0,302,1,0,153,19,0,270,33,0,143,39,0,302,1,0,153,19,0,302,1,0,153,19,0,302,1,0,153,19,0,268,35,0,142,43,0,303,0,0,153,19,0,303,0,0,153,19,0,0,303,0,0,153,0,0,303,0,0,153,0,303,0,0,153,21,1,302,0,0,152,19,1,258,7,38,136,9,36
2017-07-16T23:59:59Z,153,304,270,135,304,153,259,131,35,27,0,0,0,0,0,0,2,302,3,152,0,304,0,153,0,0,0,0,0,0,0,0,8,262,34,9,139,22,272,32,0,143,37,0,304,0,0,153,18,0,272,32,0,143,38,0,304,0,0,153,19,0,304,0,0,153,19,0,303,1,0,153,20,0,270,34,0,142,42,0,304,0,0,153,19,0,304,0,0,153,19,0,0,304,0,0,153,0,0,304,0,0,153,0,304,0,0,153,21,1,302,1,0,152,20,1,259,8,37,136,9,35
2017-07-17T23:59:59Z,154,304,277,140,304,154,266,136,37,28,0,0,0,0,0,0,2,302,3,153,0,304,0,154,0,0,0,0,0,0,0,0,8,260,36,9,138,23,270,34,0,142,37,0,304,0,0,154,17,0,270,34,0,142,38,0,303,1,0,154,19,0,303,1,0,154,19,0,302,1,1,154,19,1,268,36,0,141,42,0,303,1,0,154,20,0,303,1,0,154,20,0,0,304,0,0,154,0,0,304,0,0,154,0,304,0,0,154,20,1,303,0,0,153,18,1,257,8,39,135,9,35
2017-07-18T23:59:59Z,155,309,282,142,309,155,264,134,40,30,0,0,0,0,0,0,2,307,3,154,0,309,0,155,0,0,0,0,0,0,0,0,9,261,39,10,140,25,272,37,0,144,41,0,309,0,0,155,20,0,272,36,1,144,41,1,309,0,0,155,19,0,309,0,0,155,19,0,309,0,0,155,19,0,270,39,0,143,45,0,309,0,0,155,20,0,309,0,0,155,20,0,0,309,0,0,155,0,0,309,0,0,155,0,309,0,0,155,22,2,308,0,0,154,18,1,259,7,43,137,9,38
2017-07-19T23:59:59Z,155,311,298,152,311,155,236,133,41,30,0,0,0,0,0,0,2,309,3,154,0,310,1,155,0,0,0,0,0,0,0,0,9,263,39,10,140,26,273,38,0,144,39,1,310,1,0,155,18,1,273,38,0,144,40,1,311,0,0,155,18,1,311,0,0,155,18,1,310,0,1,155,18,2,271,40,0,143,44,1,311,0,0,155,19,1,310,0,1,155,19,2,0,310,1,0,155,2,0,310,1,0,155,2,311,0,0,155,20,2,310,0,0,154,18,2,260,8,43,137,9,37
2017-07-20T23:59:59Z,154,308,295,151,308,154,201,118,38,29,0,0,0,0,0,0,2,306,3,153,0,308,0,154,0,0,0,0,0,0,0,0,9,262,37,10,139,24,273,35,0,143,39,0,308,0,0,154,19,0,272,36,0,143,40,0,307,1,0,154,20,0,307,1,0,154,20,0,307,1,0,154,20,0,270,38,0,142,44,0,307,1,0,154,21,0,307,1,0,154,21,0,0,308,0,0,154,0,0,308,0,0,154,0,308,0,0,154,21,1,306,1,0,153,20,1,260,7,41,136,11,36
2017-07-21T23:59:59Z,157,310,297,154,310,157,204,120,40,30,0,0,0,0,0,0,3,307,4,156,0,310,0,157,0,0,0,0,0,0,0,0,9,262,39,10,141,25,273,37,0,145,40,0,310,0,0,157,19,0,273,37,0,145,39,0,310,0,0,157,17,0,310,0,0,157,17,0,310,0,0,157,17,0,271,39,0,144,43,0,310,0,0,157,20,0,310,0,0,157,20,0,0,310,0,0,157,0,0,310,0,0,157,0,310,0,0,157,21,1,309,0,0,156,19,1,260,7,43,138,8,37
2017-07-22T23:59:59Z,153,301,289,150,301,153,198,115,38,28,0,0,0,0,0,0,2,299,3,152,0,301,0,153,0,0,0,0,0,0,0,0,9,256,36,10,137,23,266,35,0,141,37,0,301,0,0,153,17,0,266,35,0,141,37,0,301,0,0,153,17,0,301,0,0,153,17,0,301,0,0,153,17,0,264,37,0,140,41,0,300,1,0,153,20,0,300,1,0,153,20,0,0,301,0,0,153,0,0,301,0,0,153,0,301,0,0,153,20,1,299,1,0,152,19,1,254,7,40,135,7,35
2017-07-23T23:59:59Z,154,305,293,151,305,154,199,116,39,30,0,0,0,0,0,0,2,303,3,153,0,305,0,154,0,0,0,0,0,0,0,0,9,258,38,10,138,24,269,36,0,142,38,0,305,0,0,154,18,0,269,36,0,142,39,0,305,0,0,154,18,0,305,0,0,154,18,0,305,0,0,154,18,0,267,38,0,141,43,0,305,0,0,154,19,0,305,0,0,154,19,0,0,305,0,0,154,0,0,305,0,0,154,0,305,0,0,154,21,1,304,0,0,153,18,1,257,6,42,136,8,36
2017-07-24T23:59:59Z,157,305,290,154,305,157,193,120,33,29,0,0,0,0,0,0,2,303,3,156,0,305,0,157,0,0,0,0,0,0,0,0,9,264,32,10,141,24,275,30,0,146,38,0,305,0,0,157,17,0,275,30,0,146,39,0,305,0,0,157,19,0,305,0,0,157,19,0,305,0,0,157,19,0,273,32,0,145,43,0,302,3,0,155,20,0,305,0,0,157,18,0,0,305,0,0,157,0,0,305,0,0,157,0,305,0,0,157,26,2,304,0,0,156,18,1,262,6,37,139,8,37
2017-07-25T23:59:59Z,159,313,298,155,313,159,204,118,40,30,0,0,0,0,0,0,2,311,3,158,0,313,0,159,0,0,0,0,0,0,0,0,9,265,39,10,142,25,276,37,0,147,40,0,313,0,0,159,18,0,276,37,0,147,40,0,313,0,0,159,19,0,313,0,0,159,19,0,313,0,0,159,19,0,274,39,0,146,44,0,313,0,0,159,20,0,313,0,0,159,20,0,0,313,0,0,159,0,0,313,0,0,159,0,313,0,0,159,21,1,312,0,0,158,17,1,263,7,43,140,9,37
2017-07-26T23:59:59Z,160,320,305,157,320,160,206,121,44,32,0,0,0,0,0,0,2,318,3,159,0,320,0,160,0,0,0,0,0,0,0,0,9,268,43,10,143,27,279,41,0,148,41,0,320,0,0,160,17,0,279,41,0,148,42,0,320,0,0,160,18,0,320,0,0,160,18,0,320,0,0,160,18,0,277,43,0,147,46,0,320,0,0,160,19,0,320,0,0,160,19,0,0,320,0,0,160,0,0,320,0,0,160,0,320,0,0,160,20,1,318,1,0,159,19,1,266,8,46,141,9,39
2017-07-27T23:59:59Z,155,311,296,152,311,155,209,123,42,31,0,0,0,0,0,0,2,309,3,154,0,311,0,155,0,0,0,0,0,0,0,0,9,261,41,10,139,26,272,39,0,143,40,0,311,0,0,155,17,0,272,39,0,143,41,0,311,0,0,155,18,0,311,0,0,155,17,0,311,0,0,155,17,0,270,41,0,142,45,0,311,0,0,155,19,0,311,0,0,155,19,0,0,311,0,0,155,0,0,311,0,0,155,0,311,0,0,155,20,1,310,0,0,154,18,1,259,7,45,136,9,38
2017-07-28T23:59:59Z,153,304,289,149,304,153,198,116,42,31,0,0,0,0,0,0,2,302,3,152,0,304,0,153,0,0,0,0,0,0,0,0,9,254,41,10,137,26,265,39,0,141,40,0,304,0,0,153,17,0,265,39,0,141,40,0,304,0,0,153,16,0,304,0,0,153,16,0,304,0,0,153,16,0,263,41,0,140,44,0,304,0,0,153,18,0,304,0,0,153,18,0,0,304,0,0,153,0,0,304,0,0,153,0,304,0,0,153,20,1,303,0,0,152,16,1,252,7,45,134,9,38
2017-07-29T23:59:59Z,153,304,290,150,304,153,198,115,41,30,0,0,0,0,0,0,2,302,3,152,0,304,0,153,0,0,0,0,0,0,0,0,9,255,40,10,136,25,266,38,0,141,39,0,304,0,0,153,17,0,266,38,0,141,40,0,303,1,0,153,19,0,303,1,0,153,19,0,304,0,0,153,18,0,264,40,0,140,44,0,304,0,0,153,18,0,304,0,0,153,18,0,0,304,0,0,153,0,0,304,0,0,153,0,304,0,0,153,20,1,303,0,0,152,18,1,253,8,43,134,10,37
2017-07-30T23:59:59Z,153,299,282,149,299,153,192,113,40,31,0,0,0,0,0,0,1,298,2,152,0,299,0,153,0,0,0,0,0,0,0,0,9,251,39,10,136,25,262,37,0,141,39,0,299,0,0,153,16,0,262,37,0,141,39,0,299,0,0,153,17,0,299,0,0,153,16,0,299,0,0,153,17,0,260,39,0,140,43,0,299,0,0,153,19,0,299,0,0,153,19,0,0,299,0,0,153,0,0,299,0,0,153,0,299,0,0,153,20,1,298,0,0,152,18,1,249,7,43,134,11,37
2017-07-31T23:59:59Z,152,305,287,147,304,152,197,118,43,32,0,0,0,0,0,0,1,304,2,151,0,305,0,152,0,0,0,0,0,0,0,0,9,255,41,10,136,26,265,40,0,140,40,0,304,1,0,152,17,0,265,40,0,140,41,0,305,0,0,152,17,0,305,0,0,152,17,0,305,0,0,152,17,0,263,42,0,139,45,0,305,0,0,152,17,0,305,0,0,152,18,0,0,305,0,0,152,0,0,305,0,0,152,0,305,0,0,152,19,1,304,0,0,151,17,1,252,8,45,133,10,38
2017-08-01T23:59:59Z,152,304,286,148,304,152,200,119,42,32,0,0,0,0,0,0,1,303,2,151,0,304,0,152,0,0,0,0,0,0,0,0,9,254,41,10,136,26,265,39,0,140,40,0,304,0,0,152,17,0,265,39,0,140,41,0,304,0,0,152,17,0,304,0,0,152,17,0,304,0,0,152,17,0,263,41,0,139,45,0,304,0,0,152,19,0,304,0,0,152,19,0,0,304,0,0,152,0,0,304,0,0,152,0,304,0,0,152,20,1,303,0,0,151,16,1,252,7,45,133,10,38
2017-08-02T23:59:59Z,150,302,284,146,300,150,199,115,39,31,0,0,0,0,0,0,1,301,2,149,0,302,0,150,0,0,0,0,0,0,0,0,9,255,38,10,135,25,266,36,0,139,39,0,302,0,0,150,17,0,266,36,0,139,39,0,302,0,0,150,17,0,302,0,0,150,17,0,302,0,0,150,17,0,264,38,0,138,43,0,302,0,0,150,17,0,302,0,0,150,17,0,0,302,0,0,150,0,0,302,0,0,150,0,302,0,0,150,20,1,301,0,0,149,18,1,253,7,42,132,11,37
2017-08-03T23:59:59Z,148,295,277,143,295,148,196,116,40,31,0,0,0,0,0,0,1,294,2,147,0,295,0,148,0,0,0,0,0,0,0,0,9,247,39,10,132,25,258,37,0,137,39,0,295,0,0,148,16,0,258,37,0,137,40,0,295,0,0,148,17,0,295,0,0,148,17,0,295,0,0,148,17,0,256,39,0,136,44,0,295,0,0,148,17,0,295,0,0,148,17,0,0,295,0,0,148,0,0,295,0,0,148,0,295,0,0,148,19,1,294,0,0,147,17,1,245,8,42,130,10,37
2017-08-04T23:59:59Z,148,296,278,144,296,148,194,115,41,32,0,0,0,0,0,0,1,295,2,147,0,296,0,148,0,0,0,0,0,0,0,0,9,248,39,10,134,26,258,38,0,137,40,0,295,1,0,148,18,0,258,38,0,137,41,0,296,0,0,148,18,0,296,0,0,148,18,0,296,0,0,148,18,0,256,40,0,136,45,0,295,1,0,148,20,0,295,1,0,148,20,0,0,296,0,0,148,0,0,296,0,0,148,0,296,0,0,148,20,1,295,0,0,147,18,1,245,8,43,130,10,38
2017-08-05T23:59:59Z,148,294,276,144,294,148,193,115,38,30,0,0,0,0,0,0,1,293,2,147,0,294,0,148,0,0,0,0,0,0,0,0,9,248,37,10,133,24,259,35,0,138,39,0,294,0,0,148,17,0,259,35,0,138,40,0,294,0,0,148,18,0,294,0,0,148,18,0,294,0,0,148,18,0,257,37,0,137,44,0,294,0,0,148,19,0,294,0,0,148,19,0,0,294,0,0,148,0,0,294,0,0,148,0,294,0,0,148,20,1,293,0,0,147,18,1,246,8,40,131,10,37
2017-08-06T23:59:59Z,149,297,279,145,297,149,189,113,38,30,0,0,0,0,0,0,1,296,2,148,0,297,0,149,0,0,0,0,0,0,0,0,9,252,36,10,135,24,262,35,0,139,39,0,296,1,0,149,18,0,262,35,0,139,39,0,296,1,0,149,18,0,297,0,0,149,17,0,297,0,0,149,17,0,260,37,0,138,43,0,296,1,0,149,20,0,296,1,0,149,20,0,0,297,0,0,149,0,0,297,0,0,149,0,297,0,0,149,20,1,295,1,0,148,18,1,249,8,40,132,9,37
2017-08-07T23:59:59Z,154,304,285,148,304,154,195,117,42,33,0,0,0,0,0,0,1,303,2,153,0,304,0,154,0,0,0,0,0,0,0,0,9,254,41,10,138,27,265,39,0,143,43,0,304,0,0,154,19,0,265,39,0,143,44,0,304,0,0,154,21,0,304,0,0,154,21,0,304,0,0,154,21,0,263,41,0,142,48,0,304,0,0,154,21,0,304,0,0,154,21,0,0,304,0,0,154,0,0,304,0,0,154,0,304,0,0,154,23,1,303,0,0,153,19,1,252,7,45,136,10,40
2017-08-08T23:59:59Z,152,298,281,147,298,152,193,115,40,32,0,0,0,0,0,0,1,297,2,151,0,298,0,152,0,0,0,0,0,0,0,0,9,250,39,10,137,26,261,37,0,142,41,0,298,0,0,152,18,0,261,37,0,142,42,0,298,0,0,152,19,0,298,0,0,152,19,0,298,0,0,152,19,0,259,39,0,141,46,0,298,0,0,152,20,0,298,0,0,152,20,0,0,298,0,0,152,0,0,298,0,0,152,0,298,0,0,152,22,1,297,0,0,151,18,1,249,7,42,135,10,38
2017-08-09T23:59:59Z,154,302,285,148,302,154,195,118,42,33,0,0,0,0,0,0,2,300,3,153,0,302,0,154,0,0,0,0,0,0,0,0,9,252,41,10,139,27,263,39,0,143,43,0,302,0,0,154,20,0,263,39,0,143,44,0,302,0,0,154,20,0,302,0,0,154,21,0,302,0,0,154,20,0,261,41,0,142,48,0,302,0,0,154,21,0,302,0,0,154,21,0,0,302,0,0,154,0,0,302,0,0,154,0,302,0,0,154,23,1,301,0,0,153,20,1,250,7,45,136,10,40
2017-08-10T23:59:59Z,153,304,287,148,304,153,191,115,41,32,0,0,0,0,0,0,1,303,2,152,0,304,0,153,0,0,0,0,0,0,0,0,9,255,40,10,139,26,266,38,0,143,42,0,304,0,0,153,20,0,266,38,0,143,43,0,304,0,0,153,20,0,304,0,0,153,20,0,304,0,0,153,20,0,264,40,0,142,47,0,304,0,0,153,20,0,304,0,0,153,20,0,0,304,0,0,153,0,0,304,0,0,153,0,304,0,0,153,23,1,303,0,0,152,21,1,253,7,44,136,10,39
2017-08-11T23:59:59Z,150,298,282,145,298,150,194,117,41,32,0,0,0,0,0,0,1,297,2,149,0,298,0,150,0,0,0,0,0,0,0,0,9,250,39,10,136,26,260,38,0,140,42,0,297,1,0,150,20,0,260,38,0,140,42,0,298,0,0,150,19,0,298,0,0,150,19,0,298,0,0,150,19,0,258,40,0,139,46,0,297,1,0,150,22,0,297,1,0,150,22,0,0,298,0,0,150,0,0,298,0,0,150,0,298,0,0,150,22,1,296,1,0,149,20,1,247,8,43,133,11,39
2017-08-12T23:59:59Z,153,300,282,145,300,153,196,116,45,34,0,0,0,0,0,0,1,299,2,152,0,300,0,153,0,0,0,0,0,0,0,0,9,248,43,10,138,28,258,42,0,141,44,0,299,1,0,153,21,0,258,42,0,141,44,0,299,1,0,153,21,0,299,1,0,153,21,0,299,1,0,153,21,0,256,44,0,140,48,0,300,0,0,153,22,0,300,0,0,153,22,0,0,300,0,0,153,0,0,300,0,0,153,0,300,0,0,153,23,1,298,1,0,152,22,1,245,8,47,134,11,41
2017-08-13T23:59:59Z,152,301,283,144,301,152,197,114,43,33,0,0,0,0,0,0,1,300,2,151,0,301,0,152,0,0,0,0,0,0,0,0,9,250,42,10,139,27,261,40,0,142,44,0,301,0,0,152,22,0,261,40,0,142,45,0,301,0,0,152,23,0,301,0,0,152,23,0,301,0,0,152,23,0,259,42,0,141,49,0,301,0,0,152,24,0,301,0,0,152,24,0,0,301,0,0,152,0,0,301,0,0,152,0,301,0,0,152,25,1,300,0,0,151,23,1,248,7,46,135,11,40
2017-08-14T23:59:59Z,155,305,284,146,305,155,195,115,42,32,0,0,0,0,0,0,1,304,2,154,0,305,0,155,0,0,0,0,0,0,0,0,9,255,41,10,141,27,266,39,0,144,42,0,305,0,0,155,20,0,266,39,0,144,43,0,305,0,0,155,20,0,304,0,1,155,20,1,305,0,0,155,20,0,264,41,0,143,47,0,305,0,0,155,20,0,305,0,0,155,20,0,0,305,0,0,155,0,0,305,0,0,155,0,305,0,0,155,23,1,304,0,0,154,21,1,253,7,45,137,11,38
2017-08-15T23:59:59Z,153,303,281,143,302,153,194,113,40,31,0,0,0,0,0,0,1,301,2,152,0,302,0,153,0,0,0,0,0,0,0,0,9,254,39,10,141,25,264,38,0,143,40,0,301,1,0,152,19,0,264,38,0,143,41,0,301,1,0,152,20,0,301,1,0,152,20,0,301,1,0,152,20,0,262,40,0,142,45,0,301,1,0,152,21,0,301,1,0,152,21,0,0,302,0,0,153,0,0,302,0,0,153,1,303,0,0,153,22,1,300,1,0,151,20,1,253,6,43,137,10,37
2017-08-16T23:59:59Z,154,304,282,143,304,154,198,114,43,31,0,0,0,0,0,0,2,302,3,153,0,304,1,154,0,0,0,0,0,0,0,0,9,253,42,10,141,28,264,40,0,145,40,2,304,0,0,154,18,2,264,40,0,145,40,2,303,1,0,154,19,2,303,1,0,154,19,2,303,1,0,154,19,2,262,42,0,144,44,2,304,0,0,154,19,2,304,0,0,154,19,2,0,304,0,0,154,2,0,304,0,0,154,2,304,0,0,154,20,3,303,0,0,153,18,3,253,6,45,139,9,38